KA8DUX-2 Weather Reports


Display with metric or nautical units.
time (UTC)temp
F
wind
direction
speed
MPH
gust
MPH
rain 1hr
in
rain 24hr
in
rain mn
in
humidity
%
barometer
mb
20260508113226 35 132 0.0 0.0 0.00 0.00 0.00 96 1009.9
20260508112721 34 132 0.0 0.0 0.00 0.00 0.00 96 1010.0
20260508112218 34 127 0.0 0.0 0.00 0.00 0.00 96 1010.0
20260508111715 33 126 0.0 0.0 0.00 0.00 0.00 95 1009.9
20260508111213 33 130 0.0 0.0 0.00 0.00 0.00 95 1009.9
20260508110710 33 131 0.0 0.0 0.00 0.00 0.00 95 1009.9
20260508110207 33 129 0.0 0.0 0.00 0.00 0.00 95 1010.0
20260508105706 33 132 0.0 0.0 0.00 0.00 0.00 95 1010.0
20260508105204 33 127 0.0 0.0 0.00 0.00 0.00 95 1009.7
20260508104701 33 127 0.0 0.0 0.00 0.00 0.00 95 1009.7
20260508104158 33 128 0.0 0.0 0.00 0.00 0.00 95 1009.5
20260508103655 34 128 0.0 0.0 0.00 0.00 0.00 95 1009.8
20260508103152 33 133 0.0 0.0 0.00 0.00 0.00 95 1009.6
20260508102649 34 126 0.0 0.0 0.00 0.00 0.00 94 1009.6
20260508102147 34 122 0.0 0.0 0.00 0.00 0.00 94 1009.7
20260508101644 34 97 0.0 0.0 0.00 0.00 0.00 94 1009.5
20260508101142 34 119 0.0 0.0 0.00 0.00 0.00 94 1009.8
20260508100639 34 124 0.0 0.0 0.00 0.00 0.00 93 1009.8
20260508100137 34 124 0.0 0.0 0.00 0.00 0.00 93 1009.6
20260508095633 34 125 0.0 0.0 0.00 0.00 0.00 93 1009.8
20260508095130 34 125 0.0 0.0 0.00 0.00 0.00 93 1009.7
20260508094627 34 117 0.0 0.0 0.00 0.00 0.00 93 1009.7
20260508094124 34 125 0.0 0.0 0.00 0.00 0.00 93 1009.7
20260508093621 35 126 0.0 0.0 0.00 0.00 0.00 92 1009.8
20260508093119 35 127 0.0 0.0 0.00 0.00 0.00 92 1009.9
20260508092616 35 130 0.0 0.0 0.00 0.00 0.00 93 1009.8
20260508092114 34 129 0.0 0.0 0.00 0.00 0.00 92 1010.2
20260508091611 35 127 0.0 0.0 0.00 0.00 0.00 92 1009.8
20260508091108 35 130 0.0 0.0 0.00 0.00 0.00 92 1009.9
20260508090606 35 131 0.0 0.0 0.00 0.00 0.00 92 1010.0
20260508090103 35 129 0.0 0.0 0.00 0.00 0.00 91 1010.0
20260508085559 35 129 0.0 0.0 0.00 0.00 0.00 91 1010.0
20260508085057 35 127 0.0 0.0 0.00 0.00 0.00 90 1009.9
20260508084553 36 126 0.0 0.0 0.00 0.00 0.00 90 1009.9
20260508084050 36 126 0.0 0.0 0.00 0.00 0.00 90 1009.9
20260508083547 36 126 0.0 0.0 0.00 0.00 0.00 90 1010.0
20260508083044 36 120 0.0 0.0 0.00 0.00 0.00 90 1009.8
20260508082540 36 125 0.0 0.0 0.00 0.00 0.00 90 1009.9
20260508082037 37 125 0.0 0.0 0.00 0.00 0.00 90 1010.1
20260508081535 37 125 0.0 0.0 0.00 0.00 0.00 90 1010.2
20260508081031 37 121 0.0 0.0 0.00 0.00 0.00 89 1010.2
20260508080529 37 112 0.0 0.0 0.00 0.00 0.00 89 1010.3
20260508080026 37 117 0.0 0.0 0.00 0.00 0.00 89 1010.1
20260508075522 37 123 0.0 0.0 0.00 0.00 0.00 88 1010.0
20260508075020 37 122 0.0 0.0 0.00 0.00 0.00 87 1010.0
20260508074518 37 112 0.0 0.0 0.00 0.00 0.00 87 1010.0
20260508074014 37 133 0.0 0.0 0.00 0.00 0.00 87 1010.0
20260508073511 37 133 0.0 0.0 0.00 0.00 0.00 87 1010.0
20260508073009 38 133 0.0 0.0 0.00 0.00 0.00 86 1010.1
20260508072504 38 129 0.0 0.0 0.00 0.00 0.00 87 1010.2
20260508072002 38 130 0.0 0.0 0.00 0.00 0.00 87 1010.3
20260508071500 37 125 0.0 0.0 0.00 0.00 0.00 87 1010.3
20260508070957 38 125 0.0 0.0 0.00 0.00 0.00 87 1010.3
20260508070455 38 125 0.0 0.0 0.00 0.00 0.00 86 1010.6
20260508065953 38 124 0.0 0.0 0.00 0.00 0.00 86 1010.3
20260508065450 38 135 0.0 0.0 0.00 0.00 0.00 86 1010.5
20260508064948 38 139 0.0 0.0 0.00 0.00 0.00 86 1010.5
20260508064446 38 134 0.0 0.0 0.00 0.00 0.00 86 1010.4
20260508063943 38 135 0.0 0.0 0.00 0.00 0.00 86 1010.3
20260508063440 38 135 0.0 0.0 0.00 0.00 0.00 85 1010.4
20260508062938 38 135 0.0 0.0 0.00 0.00 0.00 85 1010.6
20260508062436 38 134 0.0 0.0 0.00 0.00 0.00 85 1010.5
20260508061932 38 134 0.0 0.0 0.00 0.00 0.00 85 1010.7
20260508061430 38 132 0.0 0.0 0.00 0.00 0.00 84 1010.4
20260508060926 39 133 0.0 0.0 0.00 0.00 0.00 84 1010.5
20260508060424 39 125 0.0 0.0 0.00 0.00 0.00 83 1010.6
20260508055919 39 119 0.0 0.0 0.00 0.00 0.00 83 1010.6
20260508055416 39 133 0.0 0.0 0.00 0.00 0.00 82 1010.5
20260508054913 39 138 0.0 0.0 0.00 0.00 0.00 82 1010.7
20260508054410 40 124 0.0 0.0 0.00 0.00 0.00 82 1010.7
20260508053907 40 112 0.0 0.0 0.00 0.00 0.00 81 1011.0
20260508053404 39 123 0.0 0.0 0.00 0.00 0.00 81 1010.7
20260508052902 40 127 0.0 0.0 0.00 0.00 0.00 80 1010.8
20260508052359 40 128 0.0 0.0 0.00 0.00 0.00 80 1010.7
20260508051855 40 131 0.0 0.0 0.00 0.00 0.00 80 1010.9
20260508051351 40 131 0.0 0.0 0.00 0.00 0.00 79 1010.9
20260508050847 40 129 0.0 0.0 0.00 0.00 0.00 79 1010.8
20260508050344 41 129 0.0 0.0 0.00 0.00 0.00 79 1010.8
20260508045840 41 129 0.0 0.0 0.00 0.00 0.00 78 1010.9
20260508045338 40 125 0.0 0.0 0.00 0.00 0.00 79 1010.8
20260508044835 40 127 0.0 0.0 0.00 0.00 0.00 79 1010.5
20260508044331 41 127 0.0 0.0 0.00 0.00 0.00 79 1010.8
20260508043827 41 127 0.0 0.0 0.00 0.00 0.00 78 1010.6
20260508043325 41 130 0.0 0.0 0.00 0.00 0.00 79 1010.6
20260508042821 41 121 0.0 0.0 0.00 0.00 0.00 79 1010.7
20260508042319 41 121 0.0 0.0 0.00 0.00 0.00 79 1010.6
20260508041816 41 121 0.0 0.0 0.00 0.00 0.00 78 1010.4
20260508041312 41 122 0.0 0.0 0.00 0.00 0.00 78 1010.6
20260508040809 42 120 0.0 0.0 0.00 0.00 0.00 78 1010.4
20260508040307 42 123 0.0 0.0 0.00 0.00 0.00 78 1010.5
20260508035804 42 123 0.0 0.0 0.00 0.00 0.00 76 1010.4
20260508035301 42 124 0.0 0.0 0.00 0.00 0.00 74 1010.3
20260508034757 42 123 0.0 0.0 0.00 0.00 0.00 74 1010.0
20260508034255 43 133 0.0 0.0 0.00 0.00 0.00 73 1010.2
20260508033752 43 131 0.0 0.0 0.00 0.00 0.00 73 1010.3
20260508033250 43 126 0.0 0.0 0.00 0.00 0.00 73 1010.4
20260508032747 43 120 0.0 0.0 0.00 0.00 0.00 74 1010.3
20260508032244 43 120 0.0 0.0 0.00 0.00 0.00 73 1010.5
20260508031741 43 120 0.0 0.0 0.00 0.00 0.00 74 1010.3
20260508031237 44 120 0.0 0.0 0.00 0.00 0.00 73 1010.4
20260508030734 44 119 0.0 0.0 0.00 0.00 0.00 73 1010.4
20260508030231 44 119 0.0 0.0 0.00 0.00 0.00 72 1010.4
20260508025727 44 119 0.0 0.0 0.00 0.00 0.00 72 1010.4
20260508025225 44 121 0.0 0.0 0.00 0.00 0.00 71 1010.4
20260508024720 43 121 0.0 0.0 0.00 0.00 0.00 71 1010.4
20260508024218 43 121 0.0 0.0 0.00 0.00 0.00 71 1010.5
20260508023714 43 121 0.0 0.0 0.00 0.00 0.00 70 1010.4
20260508023212 44 121 0.0 0.0 0.00 0.00 0.00 69 1010.5
20260508022707 44 121 0.0 0.0 0.00 0.00 0.00 69 1010.3
20260508022205 44 121 0.0 0.0 0.00 0.00 0.00 69 1010.1
20260508021701 45 121 0.0 0.0 0.00 0.00 0.00 67 1010.1
20260508021156 45 122 0.0 0.0 0.00 0.00 0.00 65 1010.0
20260508020654 46 121 0.0 0.0 0.00 0.00 0.00 64 1010.2
20260508020151 46 122 0.0 0.0 0.00 0.00 0.00 64 1009.8
20260508015649 46 122 0.0 0.0 0.00 0.00 0.00 63 1009.8
20260508015146 46 119 0.0 0.0 0.00 0.00 0.00 63 1009.9
20260508014642 46 132 0.0 0.0 0.00 0.00 0.00 62 1009.9
20260508014138 47 109 0.0 0.0 0.00 0.00 0.00 61 1009.9
20260508013634 47 130 0.0 0.0 0.00 0.00 0.00 60 1009.7
20260508013131 48 130 0.0 0.0 0.00 0.00 0.00 59 1009.5
20260508012629 48 131 0.0 0.0 0.00 0.00 0.00 58 1009.5
20260508012126 48 136 0.0 0.0 0.00 0.00 0.00 58 1009.6
20260508011624 48 134 0.0 0.0 0.00 0.00 0.00 57 1009.5
20260508011121 48 132 0.0 0.0 0.00 0.00 0.00 55 1009.4
20260508010618 49 132 0.0 0.0 0.00 0.00 0.00 54 1009.5
20260508010116 49 130 0.0 0.0 0.00 0.00 0.00 55 1009.3
20260508005612 50 134 0.0 0.0 0.00 0.00 0.00 53 1009.2
20260508005109 50 131 0.0 0.0 0.00 0.00 0.00 54 1009.3
20260508004605 50 124 0.0 0.0 0.00 0.00 0.00 54 1009.1
20260508004102 51 132 0.0 0.0 0.00 0.00 0.00 51 1009.2
20260508003558 51 125 0.0 0.0 0.00 0.00 0.00 51 1009.4
20260508003056 52 131 0.0 0.0 0.00 0.00 0.00 50 1009.1
20260508002552 52 108 0.0 0.0 0.00 0.00 0.00 49 1008.9
20260508002049 52 132 0.0 0.0 0.00 0.00 0.00 49 1009.3
20260508001545 52 133 0.0 0.0 0.00 0.00 0.00 49 1009.1
20260508001041 53 126 0.0 0.0 0.00 0.00 0.00 51 1009.2
20260508000537 53 141 0.0 0.0 0.00 0.00 0.00 47 1009.0
20260508000035 53 134 0.0 0.0 0.00 0.00 0.00 48 1009.1
20260507235531 52 136 0.0 0.0 0.00 0.00 0.00 49 1009.2
20260507235029 52 129 0.0 0.0 0.00 0.00 0.00 49 1009.3
20260507234525 52 130 0.0 0.0 0.00 0.00 0.00 49 1009.5
20260507234022 52 139 1.0 2.0 0.00 0.00 0.00 50 1009.2
20260507233518 53 210 2.0 2.0 0.00 0.00 0.00 45 1009.3
20260507233017 53 149 0.0 0.0 0.00 0.00 0.00 47 1009.2
20260507232513 53 127 1.0 1.0 0.00 0.00 0.00 49 1009.2
20260507232010 53 132 0.0 1.0 0.00 0.00 0.00 47 1009.5
20260507231507 53 132 0.0 0.0 0.00 0.00 0.00 47 1009.6
20260507231004 54 139 1.0 1.0 0.00 0.00 0.00 47 1009.5
20260507230501 54 277 2.0 2.0 0.00 0.00 0.00 46 1009.2
20260507225956 54 117 0.0 0.0 0.00 0.00 0.00 48 1009.6
20260507225452 53 140 2.0 2.0 0.00 0.00 0.00 46 1009.9
20260507224949 53 175 1.0 1.0 0.00 0.00 0.00 47 1009.9
20260507224444 54 161 0.0 0.0 0.00 0.00 0.00 50 1009.9
20260507223941 54 212 2.0 2.0 0.00 0.00 0.00 44 1009.9
20260507223437 54 266 2.0 2.0 0.00 0.00 0.00 44 1009.7
20260507222935 54 219 1.0 1.0 0.00 0.00 0.00 44 1009.8
20260507222432 54 131 0.0 0.0 0.00 0.00 0.00 46 1009.9
20260507221928 54 130 1.0 2.0 0.00 0.00 0.00 44 1009.9
20260507221425 54 183 2.0 2.0 0.00 0.00 0.00 45 1009.9
20260507220921 54 127 0.0 0.0 0.00 0.00 0.00 46 1009.9
20260507220419 55 162 1.0 1.0 0.00 0.00 0.00 44 1009.9
20260507215915 55 288 2.0 2.0 0.00 0.00 0.00 43 1009.9
20260507215412 56 226 3.0 3.0 0.00 0.00 0.00 42 1009.8
20260507214909 56 266 1.0 2.0 0.00 0.00 0.00 41 1010.0
20260507214407 56 231 3.0 3.0 0.00 0.00 0.00 41 1010.0
20260507213902 55 148 1.0 1.0 0.00 0.00 0.00 44 1010.0
20260507213359 56 322 1.0 1.0 0.00 0.00 0.00 43 1009.8
20260507212856 56 129 0.0 1.0 0.00 0.00 0.00 41 1010.0
20260507212352 57 134 1.0 1.0 0.00 0.00 0.00 41 1009.9
20260507211848 56 133 0.0 0.0 0.00 0.00 0.00 42 1010.0
20260507211345 57 231 2.0 2.0 0.00 0.00 0.00 42 1010.0
20260507210842 57 238 1.0 1.0 0.00 0.00 0.00 40 1010.0
20260507210339 59 310 3.0 3.0 0.00 0.00 0.00 41 1010.2
20260507205835 57 180 1.0 2.0 0.00 0.00 0.00 41 1010.3
20260507205332 56 139 1.0 1.0 0.00 0.00 0.00 42 1010.5
20260507204829 56 112 1.0 2.0 0.00 0.00 0.00 42 1010.6
20260507204326 57 115 3.0 3.0 0.00 0.00 0.00 40 1010.6
20260507203824 57 199 3.0 5.0 0.00 0.00 0.00 40 1010.8
20260507203321 57 130 1.0 1.0 0.00 0.00 0.00 41 1010.6
20260507202817 56 169 0.0 1.0 0.00 0.00 0.00 42 1010.7
20260507202314 54 137 1.0 2.0 0.00 0.00 0.00 42 1011.0
20260507201809 57 189 2.0 3.0 0.00 0.00 0.00 42 1010.8
20260507201305 55 205 2.0 2.0 0.00 0.00 0.00 42 1011.0
20260507200802 56 172 2.0 3.0 0.00 0.00 0.00 38 1011.0
20260507200257 57 239 3.0 5.0 0.00 0.00 0.00 39 1011.0
20260507195754 56 205 2.0 3.0 0.00 0.00 0.00 41 1011.2
20260507195251 56 215 2.0 3.0 0.00 0.00 0.00 41 1011.1
20260507194749 56 112 1.0 2.0 0.00 0.00 0.00 42 1011.1
20260507194244 57 213 5.0 7.0 0.00 0.00 0.00 39 1011.2
20260507193741 57 168 6.0 7.0 0.00 0.00 0.00 39 1011.2
20260507193238 57 276 5.0 7.0 0.00 0.00 0.00 39 1011.2
20260507192734 57 229 3.0 3.0 0.00 0.00 0.00 42 1011.2
20260507192231 56 168 3.0 5.0 0.00 0.00 0.00 41 1011.4
20260507191727 57 216 3.0 6.0 0.00 0.00 0.00 39 1011.4
20260507191224 56 197 2.0 2.0 0.00 0.00 0.00 40 1011.2
20260507190721 54 246 3.0 5.0 0.00 0.00 0.00 43 1011.6
20260507190220 56 190 1.0 2.0 0.00 0.00 0.00 41 1011.7
20260507185718 57 77 0.0 1.0 0.00 0.00 0.00 40 1011.6
20260507185214 56 204 2.0 2.0 0.00 0.00 0.00 41 1011.8
20260507184712 57 225 2.0 3.0 0.00 0.00 0.00 40 1011.6
20260507184210 56 247 2.0 5.0 0.00 0.00 0.00 41 1011.5
20260507183706 57 120 1.0 1.0 0.00 0.00 0.00 41 1011.6
20260507183203 54 275 3.0 3.0 0.00 0.00 0.00 41 1011.5
20260507182700 56 79 1.0 1.0 0.00 0.00 0.00 40 1011.7
20260507182155 56 61 1.0 2.0 0.00 0.00 0.00 41 1011.6
20260507181652 53 127 5.0 6.0 0.00 0.00 0.00 42 1011.5
20260507181148 54 317 3.0 5.0 0.00 0.00 0.00 41 1011.6
20260507180645 55 0 4.0 6.0 0.00 0.00 0.00 39 1011.6
20260507180142 56 316 4.0 5.0 0.00 0.00 0.00 39 1011.6
20260507175638 56 84 1.0 2.0 0.00 0.00 0.00 40 1011.5
20260507175135 55 38 2.0 2.0 0.00 0.00 0.00 42 1011.7
20260507174632 56 280 0.0 1.0 0.00 0.00 0.00 40 1011.9
20260507174130 54 137 3.0 5.0 0.00 0.00 0.00 40 1011.9
20260507173627 55 199 6.0 8.0 0.00 0.00 0.00 41 1012.0
20260507173124 54 270 2.0 2.0 0.00 0.00 0.00 42 1011.9
20260507172620 54 109 2.0 2.0 0.00 0.00 0.00 42 1012.4
20260507172118 54 76 3.0 3.0 0.00 0.00 0.00 43 1012.2
20260507171612 54 184 1.0 1.0 0.00 0.00 0.00 43 1012.3
20260507171110 52 217 2.0 2.0 0.00 0.00 0.00 43 1012.2
20260507170607 51 200 1.0 2.0 0.00 0.00 0.00 45 1012.5
20260507170104 53 234 2.0 2.0 0.00 0.00 0.00 43 1012.6
20260507165559 54 189 2.0 3.0 0.00 0.00 0.00 42 1012.5
20260507165056 53 232 3.0 3.0 0.00 0.00 0.00 43 1012.9
20260507164552 52 182 2.0 3.0 0.00 0.00 0.00 43 1012.8
20260507164049 52 195 2.0 3.0 0.00 0.00 0.00 45 1012.9
20260507163547 53 171 3.0 5.0 0.00 0.00 0.00 43 1012.9
20260507163044 53 187 3.0 5.0 0.00 0.00 0.00 44 1012.9
20260507162539 53 276 4.0 6.0 0.00 0.00 0.00 43 1012.9
20260507162036 53 284 2.0 3.0 0.00 0.00 0.00 46 1012.9
20260507161532 53 273 3.0 5.0 0.00 0.00 0.00 45 1012.8
20260507161029 52 99 2.0 3.0 0.00 0.00 0.00 46 1013.1
20260507160525 52 293 3.0 3.0 0.00 0.00 0.00 45 1012.7
20260507160022 54 304 5.0 6.0 0.00 0.00 0.00 46 1013.2
20260507155517 51 114 2.0 3.0 0.00 0.00 0.00 48 1013.0
20260507155014 53 155 5.0 7.0 0.00 0.00 0.00 46 1013.0
20260507154511 52 119 2.0 2.0 0.00 0.00 0.00 49 1012.9
20260507154009 52 167 3.0 6.0 0.00 0.00 0.00 48 1013.2
20260507153505 53 272 4.0 5.0 0.00 0.00 0.00 47 1013.0
20260507153001 52 228 4.0 5.0 0.00 0.00 0.00 46 1013.0
20260507152457 53 278 3.0 3.0 0.00 0.00 0.00 45 1013.0
20260507151954 52 118 1.0 1.0 0.00 0.00 0.00 50 1012.9
20260507151450 51 298 2.0 3.0 0.00 0.00 0.00 48 1013.0
20260507150946 53 211 3.0 5.0 0.00 0.00 0.00 44 1012.9
20260507150444 52 319 2.0 3.0 0.00 0.00 0.00 46 1012.6
20260507145940 51 189 4.0 5.0 0.00 0.00 0.00 46 1012.9
20260507145435 52 81 3.0 5.0 0.00 0.00 0.00 46 1012.9
20260507144933 52 256 3.0 3.0 0.00 0.00 0.00 46 1012.7
20260507144430 53 132 2.0 3.0 0.00 0.00 0.00 45 1012.9
20260507143927 51 138 0.0 1.0 0.00 0.00 0.00 47 1012.8
20260507143424 51 128 3.0 5.0 0.00 0.00 0.00 46 1012.9
20260507142920 51 159 1.0 1.0 0.00 0.00 0.00 49 1012.9
20260507142416 51 241 2.0 2.0 0.00 0.00 0.00 49 1013.0
20260507141914 50 140 2.0 2.0 0.00 0.00 0.00 49 1013.2
20260507141410 50 300 3.0 5.0 0.00 0.00 0.00 50 1013.0
20260507140907 50 13 4.0 6.0 0.00 0.00 0.00 50 1013.1
20260507140403 49 139 1.0 1.0 0.00 0.00 0.00 53 1013.3
20260507135901 49 252 3.0 5.0 0.00 0.00 0.00 51 1013.3
20260507135358 49 108 0.0 0.0 0.00 0.00 0.00 52 1012.9
20260507134855 49 271 2.0 3.0 0.00 0.00 0.00 52 1013.1
20260507134351 49 191 3.0 3.0 0.00 0.00 0.00 53 1012.8
20260507133847 49 148 1.0 1.0 0.00 0.00 0.00 54 1013.0
20260507133343 48 271 3.0 5.0 0.00 0.00 0.00 56 1013.1
20260507132842 47 229 1.0 2.0 0.00 0.00 0.00 60 1012.8
20260507132338 46 137 1.0 1.0 0.00 0.00 0.00 60 1013.0
20260507131835 47 273 3.0 3.0 0.00 0.00 0.00 59 1012.8
20260507131331 46 290 1.0 1.0 0.00 0.00 0.00 61 1012.9
20260507130828 46 119 0.0 1.0 0.00 0.00 0.00 63 1012.9
20260507130325 45 179 1.0 1.0 0.00 0.00 0.00 64 1012.7
20260507125825 45 286 2.0 3.0 0.00 0.00 0.00 64 1013.0
20260507125321 44 157 1.0 1.0 0.00 0.00 0.00 67 1012.7
20260507124819 44 245 3.0 5.0 0.00 0.00 0.00 67 1012.7
20260507124315 43 195 1.0 2.0 0.00 0.00 0.00 67 1012.8
20260507123814 43 164 1.0 1.0 0.00 0.00 0.00 69 1012.7
20260507123310 43 293 2.0 2.0 0.00 0.00 0.00 71 1012.9
20260507122807 43 221 3.0 3.0 0.00 0.00 0.00 72 1012.5
20260507122306 42 135 0.0 1.0 0.00 0.00 0.00 74 1012.5
20260507121758 42 193 1.0 1.0 0.00 0.00 0.00 74 1012.5
20260507121254 41 245 2.0 3.0 0.00 0.00 0.00 76 1012.5
20260507120750 41 267 3.0 3.0 0.00 0.00 0.00 77 1012.6
20260507120247 41 139 0.0 1.0 0.00 0.00 0.00 78 1012.5
20260507115743 40 182 0.0 1.0 0.00 0.00 0.00 78 1012.5
20260507115239 40 138 0.0 0.0 0.00 0.00 0.00 79 1012.6
20260507114735 40 180 2.0 3.0 0.00 0.00 0.00 80 1012.5
20260507114233 39 148 0.0 0.0 0.00 0.00 0.00 81 1012.5
20260507113730 39 146 0.0 0.0 0.00 0.00 0.00 82 1012.4